{"data":{"norad_id":55571,"intl_designator":"2023-020C","name":"STARLINK-5739","alt_names":[],"object_type":"PAYLOAD","status":"ACTIVE","operator":null,"country":"US","launch_date":"2023-02-12","launch_site_code":"AFETR","launch_vehicle":null,"mission":null,"orbit_class":"UNKNOWN","rcs_meters":null,"size_class":null,"mass_kg":null,"dimensions":null,"purposes":["comms"],"wikipedia_slug":null,"has_3d_model":false,"image_url":null,"decayed_at":null,"tle_current":{"epoch":"2026-05-25T03:08:45.044160Z","epoch_age_seconds":67688,"freshness":"FRESH","line1":"1 55571U 23020C   26145.13107690  .00000676  00000+0  34088-4 0  9990","line2":"2 55571  43.0020 296.9041 0000611 276.7071  83.3711 15.27580659180564","mean_motion":15.27580659,"eccentricity":6.11e-5,"inclination_deg":43.002,"raan_deg":296.9041,"arg_perigee_deg":276.7071,"mean_anomaly_deg":83.3711,"bstar":3.4088e-5,"rev_number":18056,"period_min":94.266708046871,"perigee_km":482.62790440739,"apogee_km":483.46634110719,"semimajor_km":6861.1841227573,"source":"CELESTRAK","updated_at":"2026-05-25T13:38:17.834309Z"}}}